Tracking 18840 objects as of 18-November-2017
HD Live streaming from Space Station
objects crossing your sky now

GONETS D1 5

Track GONETS D1 5 now!
10-day predictions
GONETS D1 5 is classified as:


NORAD ID: 24729
Int'l Code: 1997-006E
Perigee: 1,414.6 km
Apogee: 1,421.6 km
Inclination: 82.6 °
Period: 114.0 minutes
Semi major axis: 7789 km
RCS: 0.9139 m2 (medium)
Launch date: February 14, 1997
Source: Commonwealth of Independent States (former USSR) (CIS)
Launch site: PLESETSK MISSILE AND SPACE COMPLEX (PKMTR)
aabbcc
Your satellite tracking list
Your tracking list is empty




NASA's NSSDC Master Catalog

Two Line Element Set (TLE):
1 24729U 97006E   17322.45865200 -.00000002  00000-0 -71149-4 0  9991
2 24729  82.5996  78.3900 0004475 142.1526 217.9887 12.62911166957001
Source of the keplerian elements: AFSPC